THY5JB EDDH-ENGM

Flight info

Callsign THY5JB
Flight time N/A
Altitude 39000
Route SOKWO1G SOKWO T814 EXNEL M105 AMRAK DCT NERDO/N0482F400 DCT PIPEX M609 RIPAM
Aircraft B77W/H-SDE1E2E3FGHIJ2J3J4J5M1RWXY/LB1D1

Departure

Time 2026-05-05 09:34
Airport Hamburg Helmut Schmidt Airport (EDDH)

Arrival

Time N/A
Airport Oslo-Gardermoen International Airport (ENGM)
Time Latitude Longitude Altitude Speed Heading
2026-05-05 08:58 53.62764 10.00247 49 ft 0 kts 63°
2026-05-05 09:24 53.62754 10.00216 46 ft 4 kts 49°
2026-05-05 09:25 53.62737 10.00192 45 ft 4 kts 20°
2026-05-05 09:25 53.62716 10.00186 41 ft 4 kts 347°
2026-05-05 09:25 53.62702 10.00193 44 ft 1 kts 333°
2026-05-05 09:32 53.62705 10.00190 44 ft 3 kts 333°
2026-05-05 09:32 53.62752 10.00151 45 ft 12 kts 334°
2026-05-05 09:32 53.62839 10.00054 50 ft 12 kts 300°
2026-05-05 09:33 53.62844 9.99980 50 ft 0 kts 255°
2026-05-05 09:33 53.62839 9.99956 50 ft 6 kts 250°
2026-05-05 09:33 53.62821 9.99848 46 ft 12 kts 273°
2026-05-05 09:33 53.62884 9.99730 49 ft 20 kts 332°
2026-05-05 09:34 53.63246 9.99417 50 ft 104 kts 333°
2026-05-05 09:34 53.64144 9.98678 66 ft 177 kts 339°
2026-05-05 09:34 53.65312 9.97767 785 ft 180 kts 344°
2026-05-05 09:34 53.66504 9.97616 1923 ft 172 kts
2026-05-05 09:35 53.67754 9.97736 2606 ft 193 kts
2026-05-05 09:35 53.70918 9.98010 3560 ft 252 kts
2026-05-05 09:35 53.72709 9.98192 4452 ft 261 kts
2026-05-05 09:36 53.74539 9.98387 4970 ft 266 kts
2026-05-05 09:36 53.76415 9.98598 4994 ft 273 kts
2026-05-05 09:36 53.78312 9.98820 5068 ft 274 kts
2026-05-05 09:36 53.80217 9.99047 5848 ft 276 kts
2026-05-05 09:37 53.82127 9.99277 6878 ft 277 kts
2026-05-05 09:37 53.84073 9.99514 7863 ft 282 kts
2026-05-05 09:37 53.86059 9.99757 8767 ft 289 kts
2026-05-05 09:37 53.88079 10.00006 9603 ft 294 kts
2026-05-05 09:38 53.90140 10.00260 9960 ft 297 kts
2026-05-05 09:38 53.92243 10.00520 10050 ft 312 kts
2026-05-05 09:38 53.94511 10.00796 10299 ft 342 kts
2026-05-05 09:38 53.96967 10.01099 10835 ft 361 kts
2026-05-05 09:39 53.99495 10.01418 11809 ft 368 kts
2026-05-05 09:39 54.02063 10.01742 13017 ft 372 kts
2026-05-05 09:39 54.04660 10.02068 14233 ft 376 kts
2026-05-05 09:39 54.07287 10.02396 15240 ft 382 kts
2026-05-05 09:40 54.09937 10.02215 16043 ft 383 kts 343°
2026-05-05 09:40 54.12399 10.00388 17003 ft 384 kts 323°
2026-05-05 09:40 54.14381 9.97377 18107 ft 383 kts 309°
2026-05-05 09:40 54.16130 9.93982 19068 ft 386 kts 308°
2026-05-05 09:41 54.17912 9.90459 20004 ft 391 kts 307°
2026-05-05 09:41 54.19726 9.86929 20933 ft 396 kts 308°
2026-05-05 09:41 54.21565 9.83404 21837 ft 402 kts 308°
2026-05-05 09:41 54.23458 9.79848 22731 ft 408 kts 310°
2026-05-05 09:42 54.25555 9.76497 23581 ft 417 kts 316°
2026-05-05 09:42 54.27865 9.73529 24285 ft 424 kts 320°
2026-05-05 09:42 54.30311 9.70552 25014 ft 428 kts 320°
2026-05-05 09:42 54.32711 9.67593 25738 ft 432 kts 320°
2026-05-05 09:43 54.35247 9.64698 26335 ft 440 kts 329°
2026-05-05 09:43 54.38156 9.62989 26876 ft 456 kts 346°
2026-05-05 09:43 54.41391 9.62706 27580 ft 467 kts
2026-05-05 09:43 54.44608 9.63742 28318 ft 473 kts
2026-05-05 09:44 54.47828 9.64983 28960 ft 477 kts
2026-05-05 09:44 54.51100 9.66134 29526 ft 481 kts
2026-05-05 09:44 54.54398 9.67209 30103 ft 484 kts
2026-05-05 09:44 54.57726 9.68262 30585 ft 487 kts
2026-05-05 09:45 54.61058 9.69323 31065 ft 489 kts
2026-05-05 09:45 54.64418 9.70404 31532 ft 492 kts
2026-05-05 09:45 54.67793 9.71431 32048 ft 491 kts
2026-05-05 09:45 54.71150 9.72272 32686 ft 488 kts
2026-05-05 09:46 54.74511 9.73076 33336 ft 485 kts
2026-05-05 09:46 54.77842 9.73907 33932 ft 483 kts
2026-05-05 09:46 54.81168 9.74616 34399 ft 480 kts
2026-05-05 09:46 54.84502 9.74825 34776 ft 479 kts 356°
2026-05-05 09:47 54.87826 9.74454 35150 ft 478 kts 352°
2026-05-05 09:47 54.91137 9.73915 35541 ft 478 kts 351°
2026-05-05 09:47 54.94444 9.73336 35938 ft 478 kts 351°
2026-05-05 09:47 54.97789 9.72747 36307 ft 478 kts 351°
2026-05-05 09:48 55.01090 9.72179 36665 ft 479 kts 351°
2026-05-05 09:48 55.04469 9.71614 37058 ft 479 kts 351°
2026-05-05 09:48 55.07768 9.71075 37393 ft 479 kts 351°
2026-05-05 09:48 55.11109 9.70537 37746 ft 480 kts 351°
2026-05-05 09:49 55.14434 9.70006 38091 ft 480 kts 351°
2026-05-05 09:49 55.17808 9.69468 38441 ft 480 kts 351°
2026-05-05 09:49 55.21131 9.68937 38714 ft 481 kts 351°
2026-05-05 09:49 55.24462 9.68403 38892 ft 483 kts 351°
2026-05-05 09:50 55.30107 9.67493 38954 ft 487 kts 351°
2026-05-05 09:50 55.36811 9.66414 38959 ft 481 kts 351°
2026-05-05 09:51 55.43449 9.65341 38972 ft 478 kts 350°
2026-05-05 09:51 55.50115 9.64256 38970 ft 476 kts 350°
2026-05-05 09:52 55.56713 9.63177 38973 ft 476 kts 350°
2026-05-05 09:52 55.63304 9.62095 38973 ft 477 kts 350°
2026-05-05 09:53 55.69942 9.61003 38974 ft 479 kts 350°
2026-05-05 09:53 55.76581 9.59907 38970 ft 480 kts 350°
2026-05-05 09:54 55.83301 9.58795 38971 ft 481 kts 350°
2026-05-05 09:54 55.89963 9.57690 38972 ft 482 kts 350°
2026-05-05 09:55 55.96653 9.56575 38970 ft 482 kts 350°
2026-05-05 09:55 56.03329 9.55459 38969 ft 482 kts 350°
2026-05-05 09:56 56.10020 9.54337 38963 ft 482 kts 350°
2026-05-05 09:56 56.16739 9.53206 38962 ft 481 kts 350°
2026-05-05 09:57 56.23406 9.52079 38971 ft 480 kts 350°
2026-05-05 09:57 56.30045 9.50953 38968 ft 480 kts 350°
2026-05-05 09:58 56.36762 9.49810 38968 ft 480 kts 350°
2026-05-05 09:58 56.43451 9.48667 38967 ft 479 kts 350°
2026-05-05 09:59 56.50084 9.47531 38967 ft 479 kts 350°
2026-05-05 09:59 56.56714 9.46391 38968 ft 478 kts 350°
2026-05-05 10:00 56.63338 9.45248 38974 ft 478 kts 349°
2026-05-05 10:00 56.69951 9.44102 38974 ft 477 kts 349°
2026-05-05 10:01 56.76611 9.42944 38974 ft 477 kts 349°
2026-05-05 10:01 56.83269 9.41782 38978 ft 477 kts 349°
2026-05-05 10:02 56.89879 9.40625 38980 ft 477 kts 349°
2026-05-05 10:02 56.96503 9.39462 38968 ft 477 kts 349°
2026-05-05 10:03 57.03101 9.38298 38977 ft 477 kts 349°
2026-05-05 10:03 57.09740 9.37123 38980 ft 478 kts 349°
2026-05-05 10:04 57.16395 9.35941 38979 ft 478 kts 349°
2026-05-05 10:04 57.23023 9.34760 38977 ft 478 kts 349°
2026-05-05 10:05 57.29706 9.33565 38981 ft 479 kts 349°
2026-05-05 10:05 57.36331 9.32376 38989 ft 479 kts 349°
2026-05-05 10:06 57.42971 9.31180 38989 ft 479 kts 349°
2026-05-05 10:06 57.49597 9.29981 38985 ft 479 kts 349°
2026-05-05 10:07 57.56233 9.28776 38988 ft 479 kts 349°
2026-05-05 10:07 57.62868 9.27568 38986 ft 479 kts 349°
2026-05-05 10:08 57.69494 9.26357 38986 ft 478 kts 349°
2026-05-05 10:08 57.76121 9.25141 38983 ft 478 kts 349°
2026-05-05 10:09 57.82739 9.23921 38980 ft 478 kts 349°
2026-05-05 10:09 57.89364 9.22697 38988 ft 477 kts 349°
2026-05-05 10:10 57.95974 9.21452 38974 ft 477 kts 349°
2026-05-05 10:10 58.02573 9.20196 38978 ft 477 kts 349°
2026-05-05 10:11 58.08086 9.19141 38572 ft 484 kts 348°
2026-05-05 10:11 58.11461 9.18490 37796 ft 487 kts 348°
2026-05-05 10:11 58.14806 9.17854 37283 ft 480 kts 348°
2026-05-05 10:12 58.18100 9.17232 36786 ft 473 kts 348°
2026-05-05 10:12 58.21357 9.16615 36320 ft 467 kts 347°
2026-05-05 10:12 58.24572 9.16001 35866 ft 462 kts 347°
2026-05-05 10:12 58.27751 9.15390 35392 ft 457 kts 346°
2026-05-05 10:13 58.30905 9.14781 34921 ft 453 kts 346°
2026-05-05 10:13 58.34029 9.14175 34450 ft 449 kts 346°
2026-05-05 10:13 58.37125 9.13574 33976 ft 446 kts 345°
2026-05-05 10:13 58.40198 9.12975 33427 ft 442 kts 345°
2026-05-05 10:14 58.43253 9.12380 32922 ft 438 kts 345°
2026-05-05 10:14 58.46262 9.11794 32454 ft 434 kts 345°
2026-05-05 10:14 58.49251 9.11211 31983 ft 429 kts 345°
2026-05-05 10:14 58.52219 9.10631 31528 ft 425 kts 345°
2026-05-05 10:15 58.55141 9.10059 31077 ft 421 kts 345°
2026-05-05 10:15 58.58045 9.09488 30632 ft 418 kts 344°
2026-05-05 10:15 58.60917 9.08923 30240 ft 413 kts 344°
2026-05-05 10:15 58.63751 9.08366 29813 ft 409 kts 344°
2026-05-05 10:16 58.66583 9.07807 29333 ft 404 kts 344°
2026-05-05 10:16 58.69355 9.07259 28892 ft 400 kts 344°
2026-05-05 10:16 58.72115 9.06712 28446 ft 395 kts 343°
2026-05-05 10:16 58.74827 9.06173 28012 ft 391 kts 343°
2026-05-05 10:17 58.77526 9.05636 27571 ft 388 kts 343°
2026-05-05 10:17 58.80198 9.05104 27143 ft 384 kts 343°
2026-05-05 10:17 58.82884 9.04882 26687 ft 393 kts 355°
2026-05-05 10:17 58.85632 9.06174 26305 ft 410 kts 13°
2026-05-05 10:18 58.88100 9.08952 25926 ft 422 kts 29°
2026-05-05 10:18 58.90395 9.12467 25556 ft 421 kts 31°
2026-05-05 10:18 58.92648 9.16068 25165 ft 419 kts 31°
2026-05-05 10:18 58.94889 9.19661 24783 ft 416 kts 31°
2026-05-05 10:19 58.97125 9.23209 24394 ft 414 kts 30°
2026-05-05 10:19 58.99359 9.26715 24020 ft 411 kts 30°
2026-05-05 10:19 59.01584 9.30179 23628 ft 410 kts 29°
2026-05-05 10:19 59.03805 9.33625 23205 ft 407 kts 29°
2026-05-05 10:20 59.06011 9.37046 22787 ft 405 kts 29°
2026-05-05 10:20 59.08235 9.40500 22403 ft 401 kts 29°
2026-05-05 10:20 59.10372 9.43827 22025 ft 398 kts 29°
2026-05-05 10:20 59.12523 9.47182 21657 ft 395 kts 28°
2026-05-05 10:21 59.14661 9.50519 21282 ft 392 kts 28°
2026-05-05 10:21 59.16782 9.53840 20912 ft 389 kts 28°
2026-05-05 10:21 59.18886 9.57091 20560 ft 384 kts 26°
2026-05-05 10:21 59.21063 9.60011 20169 ft 377 kts 22°
2026-05-05 10:22 59.23252 9.62789 19811 ft 374 kts 21°
2026-05-05 10:22 59.25440 9.65551 19458 ft 373 kts 21°
2026-05-05 10:22 59.27604 9.68304 19066 ft 371 kts 21°
2026-05-05 10:22 59.29787 9.71107 18702 ft 369 kts 22°
2026-05-05 10:23 59.31929 9.73868 18328 ft 368 kts 22°
2026-05-05 10:23 59.34050 9.76724 17918 ft 371 kts 26°
2026-05-05 10:23 59.36078 9.79866 17495 ft 372 kts 30°
2026-05-05 10:23 59.38059 9.83102 17113 ft 369 kts 31°
2026-05-05 10:24 59.40013 9.86319 16740 ft 366 kts 31°
2026-05-05 10:24 59.41966 9.89513 16343 ft 363 kts 31°
2026-05-05 10:24 59.43898 9.92650 15950 ft 360 kts 31°
2026-05-05 10:24 59.45822 9.95754 15641 ft 354 kts 31°
2026-05-05 10:25 59.47727 9.98815 15246 ft 352 kts 32°
2026-05-05 10:25 59.49619 10.01858 14863 ft 350 kts 32°
2026-05-05 10:25 59.51495 10.04876 14484 ft 347 kts 32°
2026-05-05 10:25 59.53354 10.07870 14128 ft 344 kts 33°
2026-05-05 10:26 59.55195 10.10838 13771 ft 341 kts 33°
2026-05-05 10:26 59.57031 10.13802 13344 ft 339 kts 33°
2026-05-05 10:26 59.58846 10.16740 12938 ft 335 kts 34°
2026-05-05 10:26 59.60628 10.19628 12602 ft 330 kts 34°
2026-05-05 10:27 59.62405 10.22510 12196 ft 328 kts 34°
2026-05-05 10:27 59.64155 10.25348 11810 ft 325 kts 34°
2026-05-05 10:27 59.65877 10.28139 11475 ft 322 kts 35°
2026-05-05 10:27 59.67598 10.30945 11329 ft 311 kts 35°
2026-05-05 10:28 59.69241 10.33625 11207 ft 302 kts 35°
2026-05-05 10:28 59.70836 10.36228 11077 ft 292 kts 35°
2026-05-05 10:28 59.72428 10.38516 10949 ft 272 kts 20°
2026-05-05 10:28 59.74183 10.39246 10910 ft 249 kts 352°
2026-05-05 10:29 59.75835 10.38597 10870 ft 239 kts 337°
2026-05-05 10:29 59.77295 10.37135 10876 ft 234 kts 321°
2026-05-05 10:29 59.78545 10.35086 10893 ft 234 kts 316°
2026-05-05 10:29 59.79752 10.32976 10872 ft 234 kts 316°
2026-05-05 10:30 59.80988 10.30830 10897 ft 233 kts 317°
2026-05-05 10:30 59.82209 10.28756 10875 ft 233 kts 322°
2026-05-05 10:30 59.83685 10.27375 10873 ft 234 kts 338°
2026-05-05 10:30 59.85232 10.26332 10893 ft 235 kts 336°
2026-05-05 10:31 59.86771 10.25218 10869 ft 235 kts 336°
2026-05-05 10:31 59.88306 10.24090 10879 ft 235 kts 336°
2026-05-05 10:31 59.89846 10.22959 10897 ft 236 kts 336°
2026-05-05 10:31 59.91384 10.21825 10870 ft 236 kts 336°
2026-05-05 10:32 59.92972 10.21151 10877 ft 237 kts 353°
2026-05-05 10:32 59.94638 10.21117 10865 ft 241 kts 356°
2026-05-05 10:32 59.96323 10.21142 10867 ft 245 kts 356°
2026-05-05 10:32 59.98027 10.21152 10874 ft 246 kts 356°
2026-05-05 10:33 59.99713 10.21663 10866 ft 249 kts 20°
2026-05-05 10:33 60.01091 10.23774 10869 ft 257 kts 49°
2026-05-05 10:33 60.01829 10.27104 10523 ft 274 kts 82°
2026-05-05 10:33 60.01700 10.30904 10202 ft 275 kts 98°
2026-05-05 10:34 60.01371 10.34716 9833 ft 276 kts 99°
2026-05-05 10:34 60.01029 10.38469 9472 ft 278 kts 99°
2026-05-05 10:34 60.00684 10.42267 9138 ft 278 kts 99°
2026-05-05 10:34 60.00346 10.46058 8823 ft 276 kts 99°
2026-05-05 10:35 60.00122 10.48603 8582 ft 276 kts 99°
2026-05-05 10:35 59.99951 10.50549 8459 ft 274 kts 98°
2026-05-05 10:35 59.99618 10.54353 8112 ft 275 kts 99°
2026-05-05 10:35 59.99290 10.58114 7785 ft 274 kts 99°
2026-05-05 10:36 59.98968 10.61848 7448 ft 275 kts 99°
2026-05-05 10:36 59.98643 10.65561 7249 ft 271 kts 99°
2026-05-05 10:36 59.98321 10.69283 6963 ft 270 kts 99°
2026-05-05 10:36 59.98002 10.72952 6678 ft 267 kts 99°
2026-05-05 10:37 59.97683 10.76565 6488 ft 259 kts 99°
2026-05-05 10:37 59.97415 10.80114 6059 ft 258 kts 90°
2026-05-05 10:37 59.97668 10.83683 5529 ft 263 kts 74°
2026-05-05 10:37 59.98145 10.87233 5021 ft 269 kts 72°
2026-05-05 10:38 59.98640 10.90888 4504 ft 275 kts 73°
2026-05-05 10:38 59.99143 10.94575 3995 ft 270 kts 68°
2026-05-05 10:38 60.00188 10.97401 3652 ft 242 kts 28°
2026-05-05 10:38 60.01697 10.98309 3526 ft 220 kts
2026-05-05 10:39 60.03152 10.98797 3526 ft 205 kts
2026-05-05 10:39 60.04468 10.99402 3480 ft 182 kts 10°
2026-05-05 10:39 60.05593 11.00013 3423 ft 157 kts 10°
2026-05-05 10:39 60.06607 11.00581 3185 ft 143 kts
2026-05-05 10:40 60.07554 11.01105 3096 ft 145 kts
2026-05-05 10:40 60.08561 11.01664 2880 ft 144 kts 11°
2026-05-05 10:40 60.09550 11.02253 2609 ft 145 kts 10°